x

Gooses Reef, Md (44062) Weather Station

11:20pm - Sat 21st Oct 2017 All times are EDT. -4 hours from GMT.

  • Wind
    9mph, 11mph gusts
  • Air Temp 67°f
  • Sea Pressure 1028.2mb
  • Gooses Reef, Md
  • Gooses Reef, Md

More Historic Weather Station data

Upgrade to MSW Pro to gain access to the past 30 days of data for over 8000 Wavebouys and Weather Stations around the globe.

Join

Comparision Forecast

View Surf forecast
   
Sat 10/21 11:20pm  -   -  9 11 mph 1028.2mb - 67f
11:10pm  -   -  9 11 mph 1028.1mb - 67f
11:00pm  -   -  9 11 mph 1028mb 69f 67f
10:50pm  -   -  7 9 mph 1028mb - 67f
10:40pm  -   -  9 9 mph 1028mb - 67f
10:30pm  -   -  7 9 mph 1028mb - 68f
10:20pm  -   -  7 9 mph 1028mb - 68f
10:10pm  -   -  7 9 mph 1028mb - 68f
10:00pm 0.3ft  -  7 7 mph 1027.9mb 69f 68f
9:40pm  -   -  7 7 mph 1027.8mb - 68f
9:30pm  -   -  7 7 mph 1027.7mb - 68f
9:20pm  -   -  4 7 mph 1027.7mb - 68f
9:10pm 0.3ft  -  4 7 mph 1027.6mb - 69f
9:00pm 0.3ft  -  4 4 mph 1027.5mb 69f 69f
8:50pm 0.3ft  -  4 4 mph 1027.4mb - 69f
8:40pm  -   -  4 4 mph 1027.2mb - 69f
8:30pm  -   -  4 4 mph 1027.2mb - 69f
8:20pm  -   -  4 4 mph 1027.1mb - 69f
8:10pm 0.7ft  -  4 4 mph 1027.1mb - 69f
8:00pm 0.7ft  -  2 4 mph 1026.8mb 69f 69f
7:50pm 0.7ft  -  2 4 mph 1026.6mb - 69f
7:40pm  -   -  2 2 mph 1026.3mb - 69f
7:30pm  -   -  2 2 mph 1026.1mb - 69f
7:20pm  -   -  2 2 mph 1025.8mb - 69f
7:10pm 0.3ft  -  2 2 mph 1025.4mb - 69f
7:00pm 0.3ft  -  2 2 mph 1024.9mb 69f 69f
6:50pm 0.3ft  -  2 2 mph 1024.4mb - 69f
6:40pm  -   -  2 4 mph 1023.9mb - 69f
6:30pm  -   -  2 4 mph 1023.5mb - 69f
6:20pm  -   -  2 4 mph 1023.3mb - 69f
6:10pm 0.3ft  -  2 2 mph 1023.5mb - 69f
6:00pm 0.3ft  -  2 2 mph 1023.9mb 70f 69f
5:50pm 0.3ft  -  2 2 mph 1024.4mb - 70f
5:40pm  -   -  2 2 mph 1025.2mb - 70f
5:30pm  -   -  2 2 mph 1026.3mb - 70f
5:20pm  -   -  2 2 mph 1027.7mb - 71f
5:10pm 0.3ft  -  2 2 mph 1029.2mb - 71f
5:00pm 0.3ft  -  2 2 mph 1030.4mb 69f 72f
4:50pm  -   -  2 2 mph 1031.3mb - 72f
4:40pm  -   -   -  2 mph 1031.8mb - 72f
4:30pm  -   -  2 2 mph 1032.3mb - 71f
4:20pm  -   -  2 2 mph 1033.3mb - 71f
4:10pm 0.3ft  -  2 2 mph 1034.1mb - 71f
4:00pm 0.3ft  -  2 2 mph 1034.2mb 70f 71f
3:50pm 0.3ft  -  2 2 mph 1034mb - 71f
3:40pm  -   -  2 2 mph 1033.8mb - 71f
3:30pm  -   -  2 2 mph 1033.8mb - 70f
3:20pm  -   -  2 4 mph 1034mb - 70f
3:10pm 0.3ft  -  2 4 mph 1034.3mb - 70f
3:00pm 0.3ft  -  2 4 mph 1034.6mb 71f 70f
2:50pm 0.3ft  -  2 4 mph 1034.7mb - 70f
2:40pm  -   -  2 2 mph 1034.8mb - 70f
2:30pm  -   -  2 2 mph 1034.8mb - 70f
2:20pm  -   -  2 2 mph 1034.8mb - 69f
2:10pm 0.3ft  -  2 2 mph 1035.1mb - 69f
2:00pm 0.3ft  -  2 2 mph 1035.4mb 71f 69f
1:50pm 0.3ft  -   -  2 mph 1035.4mb - 68f
1:40pm  -   -   -  2 mph 1035.2mb - 68f
1:30pm  -   -  2 2 mph 1035.1mb - 68f
1:20pm  -   -   -  2 mph 1034.8mb - 68f
1:10pm 0.7ft  -   -  2 mph 1034.4mb - 67f
1:00pm 0.7ft  -  2 2 mph 1034mb 70f 67f
12:50pm  -   -  2 2 mph 1033.8mb - 67f
12:40pm  -   -  2 4 mph 1033.5mb - 67f
12:30pm  -   -  2 4 mph 1033.3mb - 67f
12:20pm  -   -  4 4 mph 1033.3mb - 67f
12:10pm 0.7ft  -  4 4 mph 1033.4mb - 67f
12:00pm 0.7ft  -  4 4 mph 1033.5mb 69f 67f
11:50am 0.7ft  -  4 4 mph 1033.6mb - 67f
11:40am  -   -  4 4 mph 1033.6mb - 66f
11:30am  -   -  4 7 mph 1033.7mb - 66f
11:20am  -   -  4 7 mph 1033.8mb - 66f
11:10am  -   -  7 9 mph 1034mb - 66f
11:00am  -   -  4 7 mph 1034.2mb 68f 66f
10:50am  -   -  4 7 mph 1034.2mb - 66f
10:40am  -   -  7 7 mph 1034.2mb - 66f
10:30am  -   -  7 9 mph 1034.3mb - 66f
10:20am  -   -  7 9 mph 1034.3mb - 65f
10:10am 0.3ft  -  7 9 mph 1034.3mb - 65f
10:00am 0.3ft  -  7 9 mph 1034.2mb 68f 65f
9:50am 0.3ft  -  9 11 mph 1034.2mb - 65f
9:40am  -   -  9 9 mph 1034.3mb - 65f
9:30am  -   -  9 9 mph 1034.4mb - 65f
9:20am  -   -  7 9 mph 1034.5mb - 65f
9:10am 0.3ft  -  7 9 mph 1034.4mb - 65f
9:00am 0.3ft  -  4 4 mph 1034.1mb 68f 65f
8:50am 0.3ft  -  4 4 mph 1033.5mb - 65f
8:40am  -   -  4 7 mph 1032.9mb - 65f
8:30am  -   -  4 7 mph 1032.2mb - 65f
8:20am  -   -  4 7 mph 1031.3mb - 64f
8:10am 0.3ft  -  4 7 mph 1030.3mb - 64f
8:00am 0.3ft  -  4 7 mph 1029.1mb 68f 64f
7:50am 0.3ft  -  4 7 mph 1028mb - 65f
7:40am  -   -  4 7 mph 1027.1mb - 65f
7:30am  -   -  4 7 mph 1026.5mb - 65f
7:20am  -   -  4 7 mph 1026.3mb - 64f
7:10am  -   -  4 7 mph 1026mb - 64f
7:00am  -   -  4 4 mph 1025.9mb 68f 64f
6:50am  -   -  4 4 mph 1025.7mb - 64f
6:40am  -   -  2 4 mph 1025.7mb - 64f
6:30am  -   -  2 4 mph 1025.6mb - 64f
6:20am  -   -  4 4 mph 1025.6mb - 64f
6:10am  -   -  4 4 mph 1025.5mb - 65f
6:00am  -   -  4 4 mph 1025.3mb 68f 65f
5:50am  -   -  2 4 mph 1025.1mb - 65f
5:40am  -   -  2 4 mph 1024.9mb - 65f
5:30am  -   -  2 2 mph 1024.8mb - 65f
5:20am  -   -   -  2 mph 1024.7mb - 65f
5:10am 0.3ft  -  2 2 mph 1024.7mb - 65f
5:00am 0.3ft  -   -  2 mph 1024.7mb 68f 65f
4:50am  -   -  2 2 mph 1024.6mb - 65f
4:40am  -   -  2 2 mph 1024.6mb - 65f
4:30am  -   -  2 2 mph 1024.5mb - 65f
4:20am  -   -  2 2 mph 1024.4mb - 66f
4:10am  -   -   -  2 mph 1024.3mb - 66f
4:00am  -   -   -  2 mph 1024.4mb 68f 66f
3:50am  -   -   -  2 mph 1024.4mb - 66f
3:40am  -   -   -  2 mph 1024.5mb - 66f
3:30am  -   -   -  2 mph 1024.7mb - 66f
3:20am  -   -  2 2 mph 1024.7mb - 66f
3:10am  -   -  2 4 mph 1024.7mb - 66f
3:00am  -   -  2 2 mph 1024.7mb 68f 66f
2:50am  -   -  2 2 mph 1024.7mb - 66f
2:40am  -   -  2 4 mph 1024.6mb - 66f
2:30am  -   -  2 2 mph 1024.6mb - 66f
2:20am  -   -  2 2 mph 1024.6mb - 66f
2:10am 0.3ft  -  4 4 mph 1024.5mb - 66f
2:00am 0.3ft  -  4 4 mph 1024.4mb 68f 66f
1:50am 0.3ft  -  4 4 mph 1024.2mb - 66f
1:40am  -   -  2 2 mph 1024mb - 67f
1:30am  -   -  2 4 mph 1023.9mb - 67f
1:20am  -   -  2 2 mph 1023.9mb - 67f
1:10am 0.3ft  -   -  2 mph 1023.9mb - 67f
1:00am 0.3ft  -   -  2 mph 1023.9mb 68f 67f
12:50am  -   -  2 2 mph 1023.8mb - 67f
12:40am  -   -  2 2 mph 1023.8mb - 67f
12:30am  -   -  2 2 mph 1023.8mb - 67f
12:20am  -   -  2 2 mph 1023.8mb - 67f
12:10am 0.3ft  -  2 4 mph 1023.8mb - 67f
12:00am 0.3ft  -  2 4 mph 1023.7mb 68f 67f
Fri 10/20 11:50pm 0.3ft  -  4 4 mph 1023.6mb - 67f
11:40pm  -   -  4 4 mph 1023.4mb - 67f
11:30pm  -   -  4 4 mph 1023.2mb - 67f
11:20pm  -   -  4 4 mph 1023mb - 67f
11:10pm 0.3ft  -  4 4 mph 1022.8mb - 67f
11:00pm 0.3ft  -  4 4 mph 1022.6mb 68f 67f
10:50pm 0.3ft  -  4 7 mph 1022.4mb - 67f
10:40pm  -   -  7 7 mph 1022.2mb - 67f
10:30pm  -   -  4 7 mph 1022mb - 67f
10:20pm  -   -  4 7 mph 1021.7mb - 67f
10:10pm 0.3ft  -  4 4 mph 1021.4mb - 67f
10:00pm 0.3ft  -  2 4 mph 1021mb 68f 67f
9:50pm 0.3ft  -  2 4 mph 1020.8mb - 67f
9:40pm  -   -  2 4 mph 1020.8mb - 67f
9:30pm  -   -  2 2 mph 1020.5mb - 67f
9:20pm  -   -  2 2 mph 1020.3mb - 67f
9:10pm 0.3ft  -  2 4 mph 1020mb - 67f
9:00pm 0.3ft  -  2 4 mph 1019.7mb 68f 67f
8:50pm 0.3ft  -  2 4 mph 1019.4mb - 67f
8:40pm  -   -  2 2 mph 1019.1mb - 67f
8:30pm  -   -  2 2 mph 1018.8mb - 67f
8:20pm  -   -  2 4 mph 1018.5mb - 68f
8:10pm 0.3ft  -  4 4 mph 1018.2mb - 68f
8:00pm 0.3ft  -  2 4 mph 1018mb 69f 68f
7:50pm 0.3ft  -  4 4 mph 1017.6mb - 68f
7:40pm  -   -  4 4 mph 1017.3mb - 68f
7:30pm  -   -  2 4 mph 1017.2mb - 69f
7:20pm  -   -  4 4 mph 1017.2mb - 69f
7:10pm 0.3ft  -  4 4 mph 1017.5mb - 69f
7:00pm 0.3ft  -  2 4 mph 1017.8mb 69f 69f
6:50pm 0.3ft  -  2 2 mph 1018.2mb - 69f
6:40pm  -   -  2 2 mph 1019mb - 69f
6:30pm  -   -   -  2 mph 1020.2mb - 70f
6:20pm  -   -   -  2 mph 1021.6mb - 71f
6:10pm 0.3ft  -   -  0 mph 1023mb - 74f
6:00pm 0.3ft  -   -  0 mph 1024mb 68f 75f
5:50pm 0.3ft  -   -  0 mph 1024.4mb - 73f
5:40pm  -   -   -  0 mph 1024.8mb - 73f
5:30pm  -   -  2 2 mph 1025.1mb - 72f
5:20pm  -   -  2 2 mph 1025.7mb - 71f
5:10pm 0.3ft  -  4 4 mph 1026.5mb - 71f
5:00pm 0.3ft  -  2 4 mph 1027.6mb 69f 72f
4:50pm  -   -  2 2 mph 1028.3mb - 72f
4:40pm  -   -  2 2 mph 1028.2mb - 72f
4:30pm  -   -  2 2 mph 1027.8mb - 71f
4:20pm  -   -  2 4 mph 1027.5mb - 71f
4:10pm 0.3ft  -  2 4 mph 1027.2mb - 71f
4:00pm 0.3ft  -  2 2 mph 1026.8mb 69f 71f
3:50pm 0.3ft  -  4 4 mph 1026.4mb - 71f
3:40pm  -   -  4 4 mph 1026.3mb - 71f
3:30pm  -   -  4 7 mph 1026.4mb - 71f
3:20pm  -   -  7 7 mph 1026.5mb - 70f
3:10pm 0.7ft  -  7 9 mph 1026.6mb - 70f
3:00pm 0.7ft  -  7 9 mph 1026.8mb 69f 70f
2:50pm 0.7ft  -  7 9 mph 1026.6mb - 70f
2:40pm  -   -  9 9 mph 1026.6mb - 69f
2:30pm  -   -  9 9 mph 1026.7mb - 69f
2:20pm  -   -  9 9 mph 1026.8mb - 69f
2:10pm 1ft  -  9 9 mph 1026.9mb - 69f
2:00pm 1ft 2s 9 11 mph 1027mb 69f 69f
1:50pm 1ft  -  11 11 mph 1027.2mb - 69f
1:40pm  -   -  9 11 mph 1027.3mb - 69f
1:30pm  -   -  11 13 mph 1027.5mb - 69f
1:20pm  -   -  11 13 mph 1027.7mb - 69f
1:10pm 1ft  -  11 11 mph 1027.9mb - 69f
1:00pm 1ft 2s 9 11 mph 1028mb 69f 69f
12:50pm  -   -  11 11 mph 1027.9mb - 69f
12:10pm  -   -  11 13 mph 1027.5mb - 69f
12:00pm 1.3ft 2s 13 16 mph 1027.3mb 69f 69f
11:50am  -   -  13 13 mph 1027.1mb - 69f
10:50am  -   -  16 18 mph 1026.6mb - 68f
10:20am  -   -  16 18 mph 1026.3mb - 68f
10:10am 2ft  -  16 18 mph 1026.5mb - 68f
10:00am 2ft 3s 16 18 mph 1026.7mb 68f 68f
9:50am 2ft  -  16 18 mph 1027.2mb - 68f
9:40am  -   -  16 20 mph 1027.3mb - 68f
9:30am  -   -  16 18 mph 1027mb - 68f
9:20am  -   -  18 20 mph 1027mb - 68f
9:10am 1.6ft  -  18 20 mph 1027mb - 68f
9:00am 1.6ft 3s 18 20 mph 1026.8mb 68f 67f
8:50am  -   -  16 18 mph 1026.8mb - 67f
8:40am  -   -  13 18 mph 1026.5mb - 67f
8:30am  -   -  13 16 mph 1025.9mb - 67f
8:20am  -   -  16 18 mph 1025.3mb - 67f
8:10am 1.6ft  -  13 18 mph 1024.7mb - 67f
8:00am 1.6ft 3s 16 18 mph 1024.2mb 68f 67f
7:50am 1.6ft  -  16 18 mph 1023.6mb - 67f
7:40am  -   -  16 18 mph 1023.1mb - 67f
7:30am  -   -  16 18 mph 1022.9mb - 67f
7:20am  -   -  16 18 mph 1022.8mb - 67f
7:10am 1.3ft  -  16 20 mph 1022.8mb - 67f
7:00am 1.3ft 2s 16 18 mph 1022.7mb 68f 67f
6:50am 1.3ft  -  13 16 mph 1022.6mb - 67f
6:40am  -   -  11 13 mph 1022.6mb - 67f
6:30am  -   -  11 13 mph 1022.6mb - 67f
6:20am  -   -  13 16 mph 1022.6mb - 67f
6:10am 1ft  -  13 18 mph 1022.5mb - 67f
6:00am 1ft 2s 13 16 mph 1022.5mb 68f 67f
5:50am 1ft  -  13 16 mph 1022.4mb - 67f
5:40am  -   -  13 16 mph 1022.3mb - 67f
5:30am  -   -  13 18 mph 1022.2mb - 67f
5:20am  -   -  11 18 mph 1022.2mb - 67f
5:10am 1ft  -  11 13 mph 1022.2mb - 67f
5:00am 1ft 2s 11 13 mph 1022.2mb 68f 67f
4:50am  -   -  11 13 mph 1022.1mb - 67f
4:40am  -   -  11 16 mph 1022mb - 67f
4:30am  -   -  11 13 mph 1021.9mb - 67f
4:20am  -   -  11 13 mph 1021.7mb - 67f
4:10am 1ft  -  11 13 mph 1021.6mb - 66f
4:00am 1ft 2s 11 13 mph 1021.5mb 68f 66f
3:50am 1ft  -  11 13 mph 1021.4mb - 66f
3:40am  -   -  11 13 mph 1021.3mb - 66f
3:30am  -   -  11 11 mph 1021.1mb - 66f
3:20am  -   -  11 11 mph 1021.1mb - 66f
3:10am 1.3ft  -  11 11 mph 1020.9mb - 65f
3:00am 1.3ft 2s 11 13 mph 1020.8mb 68f 65f
2:50am 1.3ft  -  11 13 mph 1020.7mb - 65f
2:40am  -   -  11 13 mph 1020.7mb - 65f
2:30am  -   -  13 13 mph 1020.7mb - 65f
2:20am  -   -  11 16 mph 1020.7mb - 65f
2:10am 1.3ft  -  11 16 mph 1020.8mb - 65f
2:00am 1.3ft 2s 11 13 mph 1020.8mb 68f 65f
1:50am 1.3ft  -  13 16 mph 1020.9mb - 65f
1:40am  -   -  13 16 mph 1021mb - 65f
1:30am  -   -  13 16 mph 1021.1mb - 65f
1:20am  -   -  13 16 mph 1021.2mb - 66f
1:10am 1ft  -  13 18 mph 1021.2mb - 66f
1:00am 1ft 2s 13 16 mph 1021.1mb 68f 66f
12:50am  -   -  13 16 mph 1021mb - 66f
12:40am  -   -  11 16 mph 1020.9mb - 66f
12:30am  -   -  9 11 mph 1020.9mb - 66f
12:20am  -   -  9 11 mph 1021.1mb - 66f
12:10am 0.7ft  -  11 16 mph 1021mb - 67f
12:00am 0.7ft  -  11 13 mph 1020.8mb 68f 67f
Thu 10/19 11:50pm 0.7ft  -  11 11 mph 1020.6mb - 66f
11:40pm  -   -  9 11 mph 1020.5mb - 66f
11:30pm  -   -  7 9 mph 1020.5mb - 66f
11:20pm  -   -  9 11 mph 1020.4mb - 66f
11:10pm 0.7ft  -  11 13 mph 1020.4mb - 66f
11:00pm 0.7ft  -  11 13 mph 1020.2mb 68f 66f
10:50pm  -   -  9 11 mph 1020.1mb - 66f
10:40pm  -   -  9 11 mph 1020.1mb - 66f
10:30pm  -   -  9 11 mph 1020.1mb - 66f
10:20pm  -   -  9 11 mph 1020mb - 67f
10:10pm 0.7ft  -  9 11 mph 1019.9mb - 67f
10:00pm 0.7ft  -  9 11 mph 1019.8mb 69f 66f
9:50pm 0.7ft  -  9 9 mph 1019.8mb - 66f
9:40pm  -   -  9 11 mph 1019.8mb - 66f
9:30pm  -   -  9 11 mph 1019.8mb - 67f
9:20pm  -   -  9 11 mph 1019.9mb - 67f
9:10pm 0.7ft  -  9 11 mph 1020mb - 67f
9:00pm 0.7ft  -  9 9 mph 1020mb 69f 67f
8:50pm 0.7ft  -  9 11 mph 1020.1mb - 68f
8:40pm  -   -  11 11 mph 1020.1mb - 68f
8:30pm  -   -  11 11 mph 1020.1mb - 68f
8:20pm  -   -  9 11 mph 1020.2mb - 68f
8:10pm 0.7ft  -  9 11 mph 1020.1mb - 68f
8:00pm 0.7ft  -  9 11 mph 1019.9mb 69f 68f
7:50pm 0.7ft  -  9 11 mph 1019.8mb - 68f
7:40pm  -   -  9 9 mph 1019.5mb - 68f
7:30pm  -   -  7 9 mph 1019.3mb - 69f
7:20pm  -   -  7 9 mph 1019mb - 69f
7:10pm  -   -  7 9 mph 1018.7mb - 69f
7:00pm  -   -  7 9 mph 1018.4mb 69f 69f
6:50pm  -   -  7 9 mph 1018.3mb - 69f
6:40pm  -   -  7 9 mph 1018.3mb - 69f
6:30pm  -   -  7 9 mph 1018.8mb - 69f
6:20pm  -   -  9 9 mph 1019.7mb - 70f
6:10pm  -   -  9 9 mph 1020.6mb - 70f
6:00pm  -   -  9 9 mph 1021.2mb 69f 70f
5:50pm  -   -  9 11 mph 1021.8mb - 70f
5:40pm  -   -  9 11 mph 1022.4mb - 70f
5:30pm  -   -  9 11 mph 1022.8mb - 70f
5:20pm  -   -  9 11 mph 1023.2mb - 70f
5:10pm 0.7ft  -  9 11 mph 1023.6mb - 70f
5:00pm 0.7ft  -  9 13 mph 1023.9mb 69f 70f
4:50pm  -   -  9 11 mph 1024.2mb - 70f
4:40pm  -   -  9 9 mph 1024.4mb - 70f
4:30pm  -   -  9 11 mph 1024.6mb - 70f
4:20pm  -   -  9 11 mph 1024.9mb - 69f
4:10pm 0.7ft  -  9 11 mph 1025.3mb - 69f
4:00pm 0.7ft  -  9 11 mph 1025.7mb 69f 69f
3:50pm 0.7ft  -  9 11 mph 1025.9mb - 69f
3:40pm  -   -  9 13 mph 1026.2mb - 69f
3:30pm  -   -  9 11 mph 1026.6mb - 69f
3:20pm  -   -  9 11 mph 1027.2mb - 69f
3:10pm 0.7ft  -  7 9 mph 1027.7mb - 68f
3:00pm 0.7ft  -  7 9 mph 1028.1mb 69f 68f
2:50pm  -   -  7 9 mph 1028.5mb - 68f
2:40pm  -   -  7 9 mph 1028.9mb - 68f
2:30pm  -   -  4 7 mph 1029.2mb - 68f
2:20pm  -   -  7 9 mph 1029.6mb - 67f
2:10pm 0.7ft  -  7 9 mph 1030.1mb - 67f
2:00pm 0.7ft  -  4 9 mph 1030.3mb 69f 67f
1:50pm 0.7ft  -  7 9 mph 1030.6mb - 67f
1:40pm  -   -  7 9 mph 1030.9mb - 66f
1:30pm  -   -  7 9 mph 1031mb - 66f
1:20pm  -   -  7 9 mph 1031.2mb - 66f
1:10pm 0.7ft  -  7 9 mph 1031.4mb - 66f
1:00pm 1ft 2s 7 11 mph 1031.5mb 69f 65f
12:50pm 0.7ft  -  7 9 mph 1031.5mb - 65f
12:40pm  -   -  7 9 mph 1031.4mb - 65f
12:30pm  -   -  9 11 mph 1031.4mb - 65f
12:20pm  -   -  9 11 mph 1031.6mb - 64f
12:10pm 0.7ft  -  9 13 mph 1031.8mb - 64f
12:00pm 0.7ft  -  11 13 mph 1032.1mb 69f 64f
11:50am  -   -  9 11 mph 1032.2mb - 64f
11:40am  -   -  11 13 mph 1032.3mb - 63f
11:30am  -   -  9 13 mph 1032.3mb - 63f
11:20am  -   -  9 13 mph 1032.1mb - 63f
11:10am 1ft  -  11 13 mph 1031.9mb - 62f
11:00am 1ft 2s 11 13 mph 1031.9mb 69f 62f
10:50am 1ft  -  11 13 mph 1031.8mb - 62f
10:40am  -   -  11 13 mph 1031.7mb - 62f
10:30am  -   -  11 13 mph 1031.6mb - 62f
10:20am  -   -  11 16 mph 1031.5mb - 61f
2:20am  -   -  13 13 mph 1026mb - 62f
1:20am  -   -  11 13 mph 1026.1mb - 62f
1:00am  -   -  11 13 mph 1026.1mb - 62f
12:50am  -   -  11 13 mph 1026.1mb - 62f
12:40am  -   -  13 13 mph 1026.1mb - 62f
12:30am  -   -  11 13 mph 1026.1mb - 62f
12:20am  -   -  11 13 mph 1026.1mb - 62f
12:10am 1ft  -  13 13 mph 1026.1mb - 63f
12:00am 1ft 2s 11 13 mph 1026mb 69f 63f
Wed 10/18 11:50pm  -   -  11 13 mph 1026mb - 63f
11:40pm  -   -  11 13 mph 1025.9mb - 63f
11:30pm  -   -  11 13 mph 1025.9mb - 63f
11:20pm  -   -  11 13 mph 1026.1mb - 63f
11:10pm 1ft  -  11 13 mph 1026.1mb - 63f
11:00pm 1ft 2s 11 11 mph 1026.1mb 69f 63f
10:50pm 1ft  -  11 11 mph 1026.1mb - 64f
10:40pm  -   -  11 13 mph 1025.9mb - 64f
10:30pm  -   -  11 13 mph 1025.9mb - 64f
10:20pm  -   -  11 13 mph 1026mb - 63f
10:10pm 1ft  -  11 13 mph 1026mb - 64f
10:00pm 1ft 2s 11 13 mph 1026.1mb 69f 64f
9:50pm 1ft  -  11 13 mph 1026.1mb - 64f
9:40pm  -   -  11 13 mph 1026mb - 65f
9:30pm  -   -  11 13 mph 1025.9mb - 65f
9:10pm 1ft  -  11 13 mph 1025.4mb - 65f
9:00pm 1ft 2s 11 13 mph 1025.1mb 69f 65f
8:50pm 1ft  -  11 13 mph 1024.8mb - 65f
8:40pm  -   -  11 13 mph 1024.5mb - 65f
8:30pm  -   -  11 13 mph 1024.2mb - 65f
8:20pm  -   -  11 13 mph 1024mb - 65f
8:10pm 1ft  -  11 13 mph 1023.8mb - 65f
8:00pm 1ft 2s 11 13 mph 1023.5mb 69f 65f
7:50pm 1ft  -  13 13 mph 1023.3mb - 65f
7:40pm  -   -  11 13 mph 1023.1mb - 65f
7:30pm  -   -  11 13 mph 1022.8mb - 65f
7:20pm  -   -  11 13 mph 1022.6mb - 66f
7:10pm 1ft  -  9 13 mph 1022.5mb - 66f
7:00pm 1ft 2s 11 13 mph 1022.4mb 69f 66f
6:50pm 1ft  -  11 13 mph 1022.5mb - 66f
6:40pm  -   -  11 13 mph 1022.8mb - 66f
6:30pm  -   -  9 13 mph 1023.6mb - 67f
6:20pm  -   -  9 11 mph 1024.5mb - 67f
6:10pm  -   -  7 9 mph 1025.4mb - 67f
6:00pm  -   -  7 9 mph 1026.2mb 69f 67f
5:50pm  -   -  9 11 mph 1027mb - 67f
5:40pm  -   -  9 11 mph 1027.5mb - 68f
5:30pm  -   -  7 9 mph 1027.9mb - 68f
5:20pm  -   -  9 11 mph 1028.4mb - 68f
5:10pm  -   -  9 11 mph 1028.8mb - 68f
5:00pm  -   -  9 11 mph 1029.2mb 69f 68f
4:50pm  -   -  9 11 mph 1029.4mb - 67f
4:40pm  -   -  9 11 mph 1029.5mb - 67f
4:30pm  -   -  9 11 mph 1029.7mb - 67f
4:20pm  -   -  9 11 mph 1030mb - 67f
4:10pm 0.3ft  -  7 9 mph 1030.2mb - 66f
4:00pm 0.3ft  -  7 9 mph 1030.4mb 70f 66f
3:50pm 0.3ft  -  7 9 mph 1030.7mb - 66f
3:40pm  -   -  7 9 mph 1031.1mb - 66f
3:30pm  -   -  7 9 mph 1031.7mb - 66f
3:20pm  -   -  7 9 mph 1032.1mb - 66f
3:10pm 0.3ft  -  7 9 mph 1032.5mb - 66f
3:00pm 0.3ft  -  7 9 mph 1032.8mb 70f 66f
2:50pm 0.3ft  -  7 9 mph 1033.1mb - 66f
2:40pm  -   -  4 9 mph 1033.4mb - 66f
2:30pm  -   -  4 7 mph 1033.5mb - 65f
2:20pm  -   -  7 7 mph 1033.8mb - 65f
2:10pm 0.3ft  -  7 9 mph 1034.1mb - 65f
2:00pm 0.3ft  -  7 9 mph 1034.5mb 70f 64f
1:50pm 0.3ft  -  4 7 mph 1034.7mb - 64f
1:40pm  -   -  4 7 mph 1035mb - 64f
1:30pm  -   -  4 7 mph 1035.1mb - 64f
1:20pm  -   -  4 7 mph 1035.3mb - 64f
1:10pm 0.7ft  -  4 7 mph 1035.4mb - 63f
1:00pm 0.7ft  -  4 7 mph 1035.5mb 69f 63f
12:50pm 0.7ft  -  7 7 mph 1035.6mb - 63f
12:40pm  -   -  4 9 mph 1035.6mb - 63f
12:20pm  -   -  4 7 mph 1035.6mb - 62f
12:10pm 0.7ft  -  4 7 mph 1035.5mb - 62f
12:00pm 0.7ft  -  7 9 mph 1035.4mb 69f 62f
11:50am 0.7ft  -  7 9 mph 1035.2mb - 61f
11:40am  -   -  7 9 mph 1035.1mb - 61f
11:30am  -   -  7 9 mph 1035mb - 60f
11:20am  -   -  9 9 mph 1035mb - 60f
11:10am 1ft  -  7 9 mph 1034.9mb - 60f
11:00am 1ft 2s 9 11 mph 1034.8mb 69f 60f
10:50am 1ft  -  9 11 mph 1034.6mb - 60f
10:40am  -   -  9 11 mph 1034.2mb - 60f
10:30am  -   -  9 11 mph 1033.9mb - 59f
10:20am  -   -  9 11 mph 1033.6mb - 59f
10:10am 1.3ft  -  9 11 mph 1033.3mb - 59f
10:00am 1.3ft 2s 11 13 mph 1032.9mb 69f 58f
9:50am 1.3ft  -  11 13 mph 1032.7mb - 58f
9:40am  -   -  11 13 mph 1032.7mb - 58f
9:30am  -   -  13 16 mph 1032.5mb - 58f
9:20am  -   -  13 16 mph 1032.3mb - 58f
9:10am 1ft  -  11 13 mph 1032.3mb - 58f
9:00am 1.3ft 2s 9 11 mph 1032.3mb 69f 58f
8:50am 1ft  -  9 11 mph 1032mb - 57f
8:40am  -   -  9 11 mph 1031.7mb - 57f
8:30am  -   -  9 11 mph 1031.5mb - 57f
8:10am 1.3ft  -  11 13 mph 1030.9mb - 56f
8:00am 1.3ft 2s 11 13 mph 1030.4mb 68f 56f
7:50am  -   -  11 13 mph 1029.9mb - 56f
7:40am  -   -  13 13 mph 1029.4mb - 56f
7:30am  -   -  11 13 mph 1029mb - 56f
7:20am  -   -  11 13 mph 1028.8mb - 56f
7:10am 1ft  -  11 13 mph 1028.7mb - 56f
7:00am 1ft 2s 11 13 mph 1028.6mb 68f 55f
6:50am 1ft  -  9 11 mph 1028.4mb - 55f
6:20am  -   -  7 9 mph 1028.1mb - 55f
6:00am  -   -  9 11 mph 1027.9mb 68f 55f
5:50am  -   -  11 13 mph 1027.6mb - 55f
5:40am  -   -  11 13 mph 1027.5mb - 55f
5:30am  -   -  11 11 mph 1027.4mb - 55f
5:20am  -   -  11 13 mph 1027.4mb - 56f
5:10am  -   -  9 11 mph 1027.4mb - 56f
5:00am  -   -  7 9 mph 1027.4mb 68f 57f
4:50am  -   -  9 9 mph 1027.4mb - 57f
4:40am  -   -  9 9 mph 1027.3mb - 57f
4:30am  -   -  7 9 mph 1027.3mb - 57f
4:20am  -   -  7 9 mph 1027.3mb - 57f
4:10am 0.7ft  -  7 9 mph 1027.3mb - 57f